This is the latest recevied weather packets stored in our database for station/object Kozakov. If no packets are shown the sender has not sent any weather packets the latest 1 day(s).
| Time | Temp. | Humidity | Pressure | Rain* | Wind** | Luminosity | Snow |
|---|---|---|---|---|---|---|---|
| 1777978517 | 17.78° C | 47% | - | - | 0.89 m/s, 260° | - | - |
| 1777978218 | 18.89° C | 47% | - | - | 0 m/s | - | - |
| 1777977918 | 17.78° C | 48% | - | - | 0 m/s | - | - |
| 1777977617 | 17.78° C | 48% | - | - | 0 m/s | - | - |
| 1777977318 | 17.78° C | 49% | - | - | 0 m/s | - | - |
| 1777977017 | 17.78° C | 50% | - | - | 0.89 m/s, 215° | - | - |
| 1777976717 | 17.22° C | 50% | - | - | 0.89 m/s, 248° | - | - |
| 1777976118 | 18.89° C | 48% | - | - | 0 m/s | - | - |
| 1777975817 | 17.22° C | 50% | - | - | 0 m/s | - | - |
| 1777975517 | 17.22° C | 50% | - | - | 0.89 m/s, 283° | - | - |
| 1777975218 | 17.78° C | 50% | - | - | 0 m/s | - | - |
| 1777974917 | 17.22° C | 51% | - | - | 0 m/s | - | - |
| 1777974617 | 17.78° C | 51% | - | - | 0 m/s | - | - |
| 1777974318 | 16.11° C | 52% | - | - | 0 m/s | - | - |
| 1777974018 | 17.22° C | 52% | - | - | 0.89 m/s, 77° | - | - |
| 1777973718 | 15° C | 54% | - | - | 1.79 m/s, 76° | - | - |
| 1777973422 | 15° C | 55% | - | - | 3.13 m/s, 83° | - | - |
| 1777973117 | 15° C | 55% | - | - | 0.89 m/s, 88° | - | - |
| 1777972819 | 15° C | 57% | - | - | 0.89 m/s, 83° | - | - |
| 1777972517 | 16.11° C | 56% | - | - | 0.89 m/s, 58° | - | - |
| 1777972217 | 15° C | 59% | - | - | 1.79 m/s, 79° | - | - |
| 1777971918 | 15° C | 60% | - | - | 0.89 m/s, 88° | - | - |
| 1777971618 | 15° C | 60% | - | - | 0.89 m/s, 110° | - | - |
| 1777971317 | 15° C | 62% | - | - | 1.79 m/s, 47° | - | - |
| 1777971017 | 13.89° C | 59% | - | - | 3.13 m/s, 81° | - | - |
* Rain since midnight (hover to see other rain measurements)
** Current wind speed in m/s (hover to see current wind gust speed)